TimeEST,TemperatureF,Dew PointF,Humidity,Sea Level PressureIn,VisibilityMPH,Wind Direction,Wind SpeedMPH,Gust SpeedMPH,PrecipitationIn,Events,Conditions,WindDirDegrees,DateUTC
12:15 AM,41.0,32.0,70,30.14,10.0,Calm,Calm,-,N/A,,Clear,0,2013-11-12 05:15:00
12:35 AM,37.4,32.0,81,30.13,10.0,Calm,Calm,-,N/A,,Clear,0,2013-11-12 05:35:00
12:55 AM,37.4,33.8,87,30.12,10.0,Calm,Calm,-,N/A,,Clear,0,2013-11-12 05:55:00
1:15 AM,35.6,32.0,87,30.11,10.0,Calm,Calm,-,N/A,,Clear,0,2013-11-12 06:15:00
1:35 AM,35.6,32.0,87,30.10,10.0,Calm,Calm,-,N/A,,Clear,0,2013-11-12 06:35:00
1:55 AM,35.6,32.0,87,30.09,10.0,Calm,Calm,-,N/A,,Clear,0,2013-11-12 06:55:00
2:15 AM,35.6,33.8,93,30.09,10.0,Calm,Calm,-,N/A,,Clear,0,2013-11-12 07:15:00
2:35 AM,35.6,32.0,87,30.08,10.0,Calm,Calm,-,N/A,,Clear,0,2013-11-12 07:35:00
2:55 AM,35.6,32.0,87,30.07,10.0,Calm,Calm,-,N/A,,Clear,0,2013-11-12 07:55:00
3:15 AM,35.6,32.0,87,30.07,10.0,ESE,3.5,-,N/A,,Clear,120,2013-11-12 08:15:00
3:35 AM,35.6,32.0,87,30.06,10.0,Calm,Calm,-,N/A,,Clear,0,2013-11-12 08:35:00
3:55 AM,35.6,32.0,87,30.05,10.0,Calm,Calm,-,N/A,,Clear,0,2013-11-12 08:55:00
4:15 AM,35.6,32.0,87,30.05,10.0,Calm,Calm,-,N/A,,Clear,0,2013-11-12 09:15:00
4:35 AM,35.6,32.0,87,30.04,10.0,Calm,Calm,-,N/A,,Clear,0,2013-11-12 09:35:00
4:55 AM,35.6,32.0,87,30.04,10.0,SE,3.5,-,N/A,,Clear,140,2013-11-12 09:55:00
5:15 AM,35.6,32.0,87,30.04,10.0,SE,3.5,-,N/A,,Clear,130,2013-11-12 10:15:00
5:35 AM,37.4,32.0,81,30.04,10.0,Calm,Calm,-,N/A,,Clear,0,2013-11-12 10:35:00
5:55 AM,37.4,32.0,81,30.04,10.0,Calm,Calm,-,N/A,,Clear,0,2013-11-12 10:55:00
6:15 AM,37.4,32.0,81,30.04,10.0,Calm,Calm,-,N/A,,Clear,0,2013-11-12 11:15:00
6:35 AM,37.4,33.8,87,30.04,10.0,Calm,Calm,-,N/A,,Clear,0,2013-11-12 11:35:00
6:55 AM,39.2,33.8,81,30.05,10.0,Calm,Calm,-,N/A,,Clear,0,2013-11-12 11:55:00
7:15 AM,41.0,33.8,76,30.05,10.0,Calm,Calm,-,N/A,,Clear,0,2013-11-12 12:15:00
7:35 AM,41.0,35.6,81,30.06,10.0,Calm,Calm,-,N/A,,Scattered Clouds,0,2013-11-12 12:35:00
7:55 AM,42.8,35.6,76,30.07,10.0,Calm,Calm,-,N/A,,Clear,0,2013-11-12 12:55:00
8:15 AM,44.6,35.6,71,30.07,10.0,Calm,Calm,-,N/A,,Clear,0,2013-11-12 13:15:00
8:35 AM,44.6,35.6,71,30.08,10.0,Calm,Calm,-,N/A,,Clear,0,2013-11-12 13:35:00
8:55 AM,46.4,35.6,66,30.11,10.0,NNW,9.2,17.3,N/A,,Clear,330,2013-11-12 13:55:00
9:15 AM,46.4,35.6,66,30.11,10.0,NW,4.6,-,N/A,,Clear,320,2013-11-12 14:15:00
9:35 AM,46.4,35.6,66,30.11,10.0,WNW,3.5,-,N/A,,Scattered Clouds,300,2013-11-12 14:35:00
9:55 AM,50.0,35.6,58,30.12,10.0,WNW,8.1,-,N/A,,Scattered Clouds,300,2013-11-12 14:55:00
10:15 AM,50.0,35.6,58,30.13,10.0,NW,5.8,-,N/A,,Scattered Clouds,320,2013-11-12 15:15:00
10:35 AM,53.6,35.6,51,30.13,10.0,NNW,10.4,16.1,N/A,,Clear,330,2013-11-12 15:35:00
10:55 AM,51.8,35.6,54,30.14,10.0,NNW,15.0,29.9,N/A,,Clear,330,2013-11-12 15:55:00
11:15 AM,51.8,37.4,58,30.15,10.0,NNW,11.5,24.2,N/A,,Clear,330,2013-11-12 16:15:00
11:35 AM,51.8,35.6,54,30.16,10.0,NNW,15.0,26.5,N/A,,Scattered Clouds,330,2013-11-12 16:35:00
11:55 AM,50.0,32.0,50,30.17,10.0,NW,21.9,27.6,N/A,,Mostly Cloudy,320,2013-11-12 16:55:00
12:15 PM,48.2,32.0,54,30.17,10.0,North,13.8,24.2,N/A,,Mostly Cloudy,350,2013-11-12 17:15:00
12:35 PM,48.2,32.0,54,30.18,10.0,North,12.7,21.9,N/A,,Overcast,350,2013-11-12 17:35:00
12:55 PM,46.4,30.2,53,30.18,10.0,North,19.6,26.5,N/A,,Overcast,350,2013-11-12 17:55:00
1:15 PM,44.6,30.2,57,30.19,10.0,NNW,15.0,28.8,N/A,,Overcast,330,2013-11-12 18:15:00
1:35 PM,44.6,28.4,53,30.21,10.0,NW,20.7,29.9,N/A,,Overcast,320,2013-11-12 18:35:00
1:55 PM,42.8,28.4,57,30.22,10.0,NNW,15.0,25.3,N/A,,Overcast,330,2013-11-12 18:55:00
2:15 PM,42.8,28.4,57,30.24,10.0,NNW,18.4,26.5,N/A,,Overcast,330,2013-11-12 19:15:00
2:35 PM,41.0,28.4,61,30.24,10.0,NW,23.0,27.6,N/A,,Overcast,310,2013-11-12 19:35:00
2:55 PM,39.2,28.4,65,30.26,10.0,NNW,12.7,32.2,N/A,,Overcast,340,2013-11-12 19:55:00
3:15 PM,37.4,26.6,65,30.28,10.0,NNW,15.0,26.5,N/A,,Overcast,330,2013-11-12 20:15:00
3:35 PM,35.6,26.6,70,30.27,10.0,NNW,10.4,25.3,N/A,,Overcast,340,2013-11-12 20:35:00
3:55 PM,35.6,26.6,70,30.28,10.0,NNW,16.1,24.2,N/A,,Overcast,330,2013-11-12 20:55:00
4:15 PM,37.4,23.0,56,30.29,10.0,NNW,18.4,25.3,N/A,,Overcast,330,2013-11-12 21:15:00
4:35 PM,35.6,24.8,65,30.29,10.0,North,10.4,-,N/A,,Overcast,350,2013-11-12 21:35:00
4:55 PM,35.6,23.0,60,30.29,10.0,North,5.8,-,N/A,,Overcast,350,2013-11-12 21:55:00
5:15 PM,37.4,21.2,52,30.30,10.0,NNW,17.3,31.1,N/A,,Overcast,330,2013-11-12 22:15:00
5:35 PM,37.4,21.2,52,30.30,10.0,NNW,5.8,-,N/A,,Overcast,340,2013-11-12 22:35:00
5:55 PM,37.4,19.4,48,30.31,10.0,NNW,10.4,-,N/A,,Overcast,330,2013-11-12 22:55:00
6:15 PM,37.4,19.4,48,30.32,10.0,NW,15.0,20.7,N/A,,Overcast,320,2013-11-12 23:15:00
6:35 PM,37.4,19.4,48,30.32,10.0,NNW,10.4,17.3,N/A,,Overcast,330,2013-11-12 23:35:00
6:55 PM,37.4,19.4,48,30.32,10.0,NNW,13.8,18.4,N/A,,Overcast,330,2013-11-12 23:55:00
7:15 PM,37.4,19.4,48,30.33,10.0,NW,11.5,17.3,N/A,,Overcast,320,2013-11-13 00:15:00
7:35 PM,37.4,19.4,48,30.34,10.0,NNW,9.2,-,N/A,,Overcast,330,2013-11-13 00:35:00
7:55 PM,37.4,19.4,48,30.35,10.0,NW,12.7,20.7,N/A,,Overcast,320,2013-11-13 00:55:00
8:15 PM,37.4,17.6,45,30.36,10.0,NNW,10.4,-,N/A,,Overcast,330,2013-11-13 01:15:00
8:35 PM,37.4,17.6,45,30.37,10.0,NW,11.5,20.7,N/A,,Overcast,320,2013-11-13 01:35:00
8:55 PM,37.4,17.6,45,30.37,10.0,NNW,10.4,25.3,N/A,,Overcast,340,2013-11-13 01:55:00
9:15 PM,37.4,17.6,45,30.38,10.0,NNW,12.7,-,N/A,,Overcast,330,2013-11-13 02:15:00
9:35 PM,37.4,17.6,45,30.39,10.0,NNW,11.5,16.1,N/A,,Scattered Clouds,330,2013-11-13 02:35:00
9:55 PM,37.4,15.8,41,30.40,10.0,NW,12.7,20.7,N/A,,Clear,320,2013-11-13 02:55:00
10:15 PM,35.6,14.0,41,30.40,10.0,NNW,13.8,20.7,N/A,,Clear,330,2013-11-13 03:15:00
10:35 PM,35.6,14.0,41,30.41,10.0,NW,10.4,-,N/A,,Clear,320,2013-11-13 03:35:00
10:55 PM,35.6,14.0,41,30.42,10.0,NW,13.8,21.9,N/A,,Clear,320,2013-11-13 03:55:00
11:15 PM,35.6,14.0,41,30.42,10.0,NNW,11.5,18.4,N/A,,Clear,330,2013-11-13 04:15:00
11:35 PM,33.8,14.0,44,30.43,10.0,NW,9.2,17.3,N/A,,Clear,310,2013-11-13 04:35:00
11:55 PM,33.8,15.8,48,30.43,10.0,NW,10.4,-,N/A,,Clear,310,2013-11-13 04:55:00